GW4058 Weather Reports


time (UTC)temp
F
wind
direction
speed
knots
gust
knots
rain 1hr
in
rain 24hr
in
rain mn
in
humidity
%
barometer
mb
20260505140523 72 3.5 6.1 0.00 0.01 0.00 51 1012.1
20260505124518 66 0.9 3.5 0.00 0.01 0.00 58 1012.6
20260505123520 65 1.7 2.6 0.00 0.01 0.00 60 1012.6
20260505122539 65 1.7 3.5 0.00 0.01 0.00 60 1012.6
20260505121520 64 1.7 3.5 0.00 0.01 0.00 61 1012.5
20260505120519 63 2.6 4.3 0.00 0.01 0.00 62 1012.5
20260505115519 62 2.6 4.3 0.00 0.01 0.00 63 1012.4
20260505114516 61 2.6 4.3 0.00 0.01 0.00 64 1012.4
20260505113520 60 1.7 3.5 0.00 0.01 0.00 67 1012.3
20260505112521 59 2.6 4.3 0.00 0.01 0.00 69 1012.2
20260505111521 58 1.7 3.5 0.00 0.01 0.00 69 1012.1
20260505110517 58 2.6 3.5 0.00 0.01 0.00 70 1012.0
20260505101518 57 2.6 5.2 0.00 0.01 0.00 72 1011.6
20260505100518 56 1.7 3.5 0.00 0.01 0.00 73 1011.6
20260505095518 56 1.7 3.5 0.00 0.01 0.00 73 1011.4
20260505094551 57 1.7 3.5 0.00 0.01 0.00 72 1011.4
20260505093521 57 1.7 3.5 0.00 0.01 0.00 71 1011.3
20260505092525 58 1.7 3.5 0.00 0.01 0.00 71 1011.3
20260505091519 58 1.7 3.5 0.00 0.01 0.00 71 1011.2
20260505090519 58 1.7 3.5 0.00 0.01 0.00 71 1011.3
20260505085517 58 1.7 4.3 0.00 0.01 0.00 71 1011.3
20260505084531 58 1.7 4.3 0.00 0.01 0.00 70 1011.3
20260505083520 59 1.7 4.3 0.00 0.01 0.00 69 1011.3
20260505082522 59 2.6 4.3 0.00 0.01 0.00 69 1011.3
20260505081517 59 2.6 5.2 0.00 0.01 0.00 70 1011.3
20260505080517 59 2.6 5.2 0.00 0.01 0.00 70 1011.2
20260505075525 59 2.6 5.2 0.00 0.01 0.00 70 1011.1
20260505074520 59 2.6 4.3 0.00 0.01 0.00 69 1011.0
20260505073517 59 2.6 4.3 0.00 0.01 0.00 69 1011.0
20260505072518 59 2.6 4.3 0.00 0.01 0.00 69 1011.0
20260505071557 59 1.7 3.5 0.00 0.01 0.00 68 1010.9
20260505070519 60 1.7 4.3 0.00 0.01 0.00 68 1010.9
20260505065519 60 2.6 3.5 0.00 0.01 0.00 67 1010.9
20260505064520 60 2.6 4.3 0.00 0.01 0.00 67 1010.8
20260505063517 59 1.7 4.3 0.00 0.01 0.00 69 1011.0
20260505062518 59 1.7 4.3 0.00 0.01 0.00 69 1011.0
20260505061542 59 1.7 5.2 0.00 0.01 0.00 68 1011.0
20260505060523 59 1.7 6.1 0.00 0.01 0.00 69 1011.0
20260505055517 59 1.7 3.5 0.00 0.01 0.00 70 1011.0
20260505054539 60 0.0 1.7 0.00 0.01 0.00 68 1011.0
20260505053518 61 1.7 2.6 0.00 0.01 0.00 66 1011.1
20260505052518 62 0.9 2.6 0.00 0.01 0.00 64 1011.1
20260505051518 63 1.7 3.5 0.00 0.01 0.00 62 1011.2
20260505050538 63 1.7 5.2 0.00 0.01 0.00 61 1011.3
20260505041518 63 2.6 5.2 0.00 0.01 0.00 59 1011.0
20260505040518 62 1.7 4.3 0.00 0.01 0.00 60 1010.9
20260505035514 63 2.6 3.5 0.00 0.01 0.01 60 1010.9
20260505034514 63 1.7 3.5 0.00 0.01 0.01 58 1011.0
20260505033517 63 1.7 4.3 0.00 0.01 0.01 58 1011.0
20260505032517 63 1.7 3.5 0.00 0.01 0.01 57 1011.1
20260505031517 63 1.7 4.3 0.00 0.01 0.01 57 1011.0
20260505030517 62 1.7 3.5 0.00 0.01 0.01 58 1011.0
20260505025517 62 1.7 3.5 0.00 0.01 0.01 58 1010.9
20260505024536 63 1.7 3.5 0.00 0.01 0.01 57 1011.0
20260505023539 64 0.9 1.7 0.00 0.01 0.01 55 1010.9
20260505022518 64 0.9 1.7 0.00 0.01 0.01 55 1010.9
20260505021524 64 0.9 1.7 0.00 0.01 0.01 55 1010.8
20260505020519 66 0.9 1.7 0.00 0.01 0.01 52 1010.8
20260505015539 66 1.7 2.6 0.00 0.01 0.01 51 1010.7
20260505014524 67 1.7 2.6 0.00 0.01 0.01 51 1010.7
20260505013522 67 1.7 2.6 0.00 0.01 0.01 50 1010.5
20260505012524 68 1.7 3.5 0.00 0.01 0.01 49 1010.4
20260505011517 68 2.6 3.5 0.00 0.01 0.01 49 1010.2
20260505010523 69 2.6 4.3 0.00 0.01 0.01 47 1010.3
20260505005524 69 1.7 3.5 0.00 0.01 0.01 47 1010.1
20260505004523 70 1.7 2.6 0.00 0.01 0.01 45 1010.1
20260505003517 70 1.7 2.6 0.00 0.01 0.01 45 1010.1
20260505002517 70 2.6 4.3 0.00 0.01 0.01 44 1010.0
20260505001523 71 1.7 3.5 0.00 0.01 0.01 44 1010.0
20260505000518 71 1.7 3.5 0.00 0.01 0.01 44 1010.0
20260504235517 71 2.6 4.3 0.00 0.01 0.01 43 1009.9
20260504234518 71 1.7 4.3 0.00 0.01 0.01 43 1009.8
20260504233518 72 1.7 3.5 0.00 0.01 0.01 43 1009.8
20260504232525 72 1.7 3.5 0.00 0.01 0.01 42 1009.8
20260504231519 73 2.6 5.2 0.00 0.01 0.01 41 1009.7
20260504230518 73 3.5 4.3 0.00 0.01 0.01 41 1009.7
20260504225522 73 2.6 5.2 0.00 0.01 0.01 40 1009.7
20260504224520 74 4.3 7.8 0.00 0.01 0.01 39 1009.6
20260504223522 74 1.7 3.5 0.00 0.01 0.01 40 1009.6
20260504222544 74 2.6 6.1 0.00 0.01 0.01 39 1009.5
20260504221541 73 2.6 7.0 0.00 0.01 0.01 40 1009.6
20260504220517 73 2.6 6.1 0.00 0.01 0.01 40 1009.6
20260504215517 73 1.7 4.3 0.00 0.01 0.01 39 1009.6
20260504214429 73 4.3 9.6 0.00 0.01 0.01 39 1009.6
20260504213543 74 2.6 7.0 0.00 0.01 0.01 39 1009.7
20260504212523 75 2.6 6.1 0.00 0.01 0.01 39 1009.6
20260504211518 75 1.7 3.5 0.00 0.01 0.01 39 1009.7
20260504210518 74 2.6 5.2 0.00 0.01 0.01 39 1009.7
20260504205518 74 2.6 5.2 0.00 0.01 0.01 41 1009.7
20260504204431 75 1.7 7.0 0.00 0.01 0.01 40 1009.7
20260504203521 74 2.6 6.1 0.00 0.01 0.01 40 1009.7
20260504202521 74 1.7 5.2 0.00 0.01 0.01 40 1009.9
20260504201540 74 2.6 8.7 0.00 0.01 0.01 41 1010.2
20260504200519 74 4.3 7.8 0.00 0.01 0.01 40 1010.2
20260504195519 73 2.6 7.0 0.00 0.01 0.01 41 1010.3
20260504194536 73 3.5 7.8 0.00 0.01 0.01 41 1010.4
20260504193520 73 3.5 6.1 0.00 0.01 0.01 40 1010.7
20260504192520 73 2.6 4.3 0.00 0.01 0.01 41 1010.9
20260504191517 72 3.5 7.0 0.00 0.01 0.01 42 1011.1
20260504190519 71 4.3 7.8 0.00 0.01 0.01 43 1011.2
20260504185517 71 5.2 7.8 0.00 0.01 0.01 43 1011.4
20260504184525 71 3.5 5.2 0.00 0.01 0.01 43 1011.6
20260504183521 71 4.3 7.0 0.00 0.01 0.01 42 1011.7
20260504182517 71 4.3 8.7 0.00 0.01 0.01 42 1011.8
20260504181517 71 2.6 5.2 0.00 0.01 0.01 43 1012.0
20260504180518 70 2.6 5.2 0.00 0.01 0.01 43 1012.2
20260504175525 69 2.6 5.2 0.00 0.01 0.01 44 1012.2
20260504174524 70 3.5 5.2 0.00 0.01 0.01 43 1012.2
20260504173522 70 5.2 9.6 0.00 0.01 0.01 42 1012.4
20260504172524 69 5.2 8.7 0.00 0.01 0.01 42 1012.4
20260504171519 69 4.3 7.8 0.00 0.01 0.01 43 1012.6
20260504170516 69 5.2 7.8 0.00 0.01 0.01 43 1012.7
20260504150520 65 4.3 7.8 0.00 0.00 0.00 44 1013.9